Bloomington, IN

2:03 PM EDT on April 26, 2017 (GMT -0400)
Monroe County

Weather History for KBMG - November, 2015

Change the Weather History Date:

Saturday, November 28, 2015

  Actual Average Record
Temperature  
Mean Temperature 45 °F 38 °F  
Max Temperature 50 °F 47 °F 66 °F (1998)
Min Temperature 40 °F 29 °F 15 °F (2013)
Degree Days  
Heating Degree Days 20 27  
Month to date heating degree days 460 582  
Since 1 July heating degree days 748 1001  
Cooling Degree Days 0 0  
Month to date cooling degree days 0 0  
Year to date cooling degree days 1044 926  
Moisture  
Dew Point 43 °F    
Average Humidity 95    
Maximum Humidity 100    
Minimum Humidity 89    
Precipitation  
Precipitation 0.53 in 0.13 in 1.40 in (2016)
Month to date precipitation 4.09 3.68  
Year to date precipitation 43.53 43.75  
Sea Level Pressure  
Sea Level Pressure 30.23 in    
Wind  
Wind Speed 9 mph (NNE)    
Max Wind Speed 14 mph    
Max Gust Speed 18 mph    
Visibility 4 miles    
Events Rain    
T = Trace of Precipitation, MM = Missing Value Source: NWS Daily Summary

Daily Weather History Graph

Daily Weather History Graph

Search for Another Location

Airport or City:

Trip Planner

Search our weather history database for the weather conditions in past years. The results will help you decide how hot, cold, wet, or windy it might be!

Date:

Astronomy

Nov. 28, 2015 Rise Set
Actual Time 7:43 AM EST 5:25 PM EST
Civil Twilight 7:14 AM EST 5:54 PM EST
Nautical Twilight 6:41 AM EST 6:27 PM EST
Astronomical Twilight 6:08 AM EST 6:59 PM EST
Moon 8:28 PM EST (11/28) 10:05 AM EST (11/28)
Length of Visible Light 10h 40m
Length of Day
9h 41m
Waning Gibbous, 90% of the Moon is Illuminated
Nov 28
Waning Gibbous
Dec 3
Last Quarter
Dec 11
New
Dec 18
First Quarter
Dec 25
Full

Hourly Weather History & Observations

Time (EST) Temp. Windchill Dew Point Humidity Pressure Visibility Wind Dir Wind Speed Gust Speed Precip Events Conditions
12:15 AM 50.0 °F - 48.9 °F 96% 30.23 in 2.5 mi NNE 5.8 mph - 0.01 in Rain Light Rain
12:25 AM 50.0 °F - 48.0 °F 93% 30.22 in 3.0 mi NE 5.8 mph - 0.02 in Rain Light Rain
12:39 AM 50.0 °F - 48.9 °F 96% 30.22 in 4.0 mi North 6.9 mph - 0.02 in Rain Light Rain
12:51 AM 50.0 °F - 48.2 °F 94% 30.22 in 2.5 mi NNE 6.9 mph - 0.03 in Rain Light Rain
12:53 AM 50.0 °F - 48.0 °F 93% 30.22 in 2.5 mi NNE 5.8 mph - 0.03 in Rain Light Rain
1:00 AM 48.9 °F - 48.0 °F 97% 30.22 in 3.0 mi NNE 5.8 mph - 0.00 in Rain Light Rain
1:17 AM 48.9 °F - 48.0 °F 97% 30.22 in 3.0 mi NNE 5.8 mph - 0.01 in Rain Light Rain
1:46 AM 48.9 °F - 48.0 °F 97% 30.21 in 2.5 mi NE 5.8 mph - 0.03 in Rain Light Rain
1:53 AM 48.9 °F - 46.9 °F 93% 30.21 in 2.5 mi NE 5.8 mph - 0.05 in Rain Rain
2:10 AM 48.9 °F - 46.9 °F 93% 30.20 in 2.5 mi ENE 4.6 mph - 0.02 in Rain Light Rain
2:28 AM 48.9 °F - 46.9 °F 93% 30.20 in 3.0 mi ENE 3.5 mph - 0.04 in Rain Light Rain
2:53 AM 48.0 °F - 46.9 °F 96% 30.21 in 2.0 mi North 9.2 mph - 0.06 in Rain Rain
3:13 AM 48.0 °F - 46.9 °F 96% 30.20 in 4.0 mi North 8.1 mph - 0.01 in Rain Light Rain
3:28 AM 48.0 °F - 46.0 °F 93% 30.20 in 4.0 mi North 8.1 mph - 0.01 in   Overcast
3:53 AM 46.9 °F - 46.0 °F 97% 30.21 in 4.0 mi North 9.2 mph - 0.01 in Rain Light Rain
4:07 AM 46.9 °F - 46.0 °F 97% 30.20 in 2.0 mi North 6.9 mph - 0.01 in Rain Light Rain
4:29 AM 46.9 °F - 45.0 °F 93% 30.21 in 3.0 mi NNE 10.4 mph - 0.03 in Rain Light Rain
4:36 AM 46.9 °F - 45.0 °F 93% 30.21 in 2.0 mi NNE 9.2 mph - 0.04 in Rain Light Rain
4:49 AM 46.4 °F 42.4 °F 44.6 °F 93% 30.22 in 3.0 mi North 8.1 mph - 0.05 in Rain Light Rain
4:53 AM 46.9 °F - 45.0 °F 93% 30.22 in 2.5 mi North 9.2 mph - 0.05 in Rain Light Rain
5:04 AM 46.0 °F 41.4 °F 45.0 °F 96% 30.21 in 2.0 mi NNE 9.2 mph - 0.02 in Rain Light Rain
5:25 AM 46.0 °F 42.5 °F 45.0 °F 96% 30.21 in 3.0 mi NNE 6.9 mph - 0.04 in Rain Light Rain
5:33 AM 46.0 °F 43.1 °F 45.0 °F 96% 30.21 in 2.5 mi NNE 5.8 mph - 0.04 in Rain Light Rain
5:53 AM 46.0 °F 41.9 °F 45.0 °F 96% 30.21 in 2.5 mi North 8.1 mph - 0.06 in Rain Light Rain
6:13 AM 46.0 °F 41.9 °F 44.1 °F 93% 30.21 in 2.5 mi NNE 8.1 mph - 0.01 in Rain Light Rain
6:25 AM 46.0 °F 41.4 °F 44.1 °F 93% 30.21 in 4.0 mi NNE 9.2 mph - 0.02 in Rain Light Rain
6:45 AM 45.0 °F 40.6 °F 44.1 °F 97% 30.21 in 2.5 mi NNE 8.1 mph - 0.02 in Rain Light Rain
6:53 AM 45.0 °F 40.6 °F 44.1 °F 97% 30.22 in 3.0 mi North 8.1 mph - 0.03 in Rain Light Rain
7:19 AM 45.0 °F 40.6 °F 43.0 °F 93% 30.22 in 2.5 mi NNE 8.1 mph - 0.01 in Rain Light Rain
7:37 AM 44.1 °F 38.6 °F 43.0 °F 96% 30.22 in 3.0 mi North 10.4 mph - 0.02 in Rain Light Rain
7:53 AM 44.1 °F 39.0 °F 42.1 °F 93% 30.24 in 2.5 mi North 9.2 mph - 0.04 in Rain Light Rain
8:00 AM 44.1 °F 39.5 °F 42.1 °F 93% 30.24 in 2.5 mi North 8.1 mph - 0.01 in Rain Light Rain
8:10 AM 44.1 °F 39.5 °F 42.1 °F 93% 30.24 in 3.0 mi North 8.1 mph - 0.02 in Rain Light Rain
8:53 AM 43.0 °F 37.2 °F 41.0 °F 93% 30.26 in 4.0 mi NNE 10.4 mph - 0.03 in Rain Light Rain
9:09 AM 42.1 °F 35.7 °F 41.0 °F 96% 30.25 in 2.5 mi NNE 11.5 mph - 0.00 in Rain Light Rain
9:17 AM 42.1 °F 36.1 °F 41.0 °F 96% 30.25 in 3.0 mi NNE 10.4 mph - 0.01 in Rain Light Rain
9:53 AM 42.1 °F 37.1 °F 41.0 °F 96% 30.26 in 4.0 mi NNE 8.1 mph - 0.02 in Rain Light Rain
10:23 AM 42.1 °F 36.1 °F 39.9 °F 92% 30.26 in 2.0 mi NNE 10.4 mph - 0.02 in Rain Rain
10:48 AM 42.8 °F 37.0 °F 39.2 °F 87% 30.25 in 4.0 mi NE 10.4 mph - 0.08 in Rain Light Rain
10:53 AM 42.1 °F 36.6 °F 39.9 °F 92% 30.26 in 6.0 mi NE 9.2 mph - 0.08 in Rain Light Rain
11:53 AM 42.1 °F 37.7 °F 39.9 °F 92% 30.26 in 10.0 mi NE 6.9 mph - 0.01 in   Overcast
12:26 PM 42.1 °F 36.6 °F 39.9 °F 92% 30.24 in 1.8 mi NE 9.2 mph - N/A   Overcast
12:53 PM 42.1 °F 37.7 °F 39.9 °F 92% 30.24 in 2.0 mi NE 6.9 mph - 0.00 in Rain Light Rain
1:13 PM 42.1 °F 36.6 °F 39.9 °F 92% 30.22 in 3.0 mi NE 9.2 mph - 0.00 in Rain Light Rain
1:28 PM 42.1 °F 36.6 °F 39.9 °F 92% 30.21 in 2.5 mi NE 9.2 mph - 0.01 in Rain Light Rain
1:44 PM 42.1 °F 36.6 °F 39.9 °F 92% 30.20 in 3.0 mi NE 9.2 mph - 0.01 in   Overcast
1:53 PM 42.1 °F 37.7 °F 39.9 °F 92% 30.21 in 3.0 mi NE 6.9 mph - 0.01 in   Overcast
2:53 PM 42.1 °F 36.1 °F 39.9 °F 92% 30.20 in 3.0 mi NE 10.4 mph - N/A   Overcast
3:09 PM 42.1 °F 36.6 °F 41.0 °F 96% 30.20 in 2.0 mi NNE 9.2 mph - N/A   Overcast
3:25 PM 42.1 °F 36.6 °F 39.9 °F 92% 30.21 in 4.0 mi NNE 9.2 mph - N/A   Overcast
3:53 PM 41.0 °F 35.2 °F 39.9 °F 96% 30.23 in 2.5 mi NNE 9.2 mph - 0.00 in Rain Light Rain
4:25 PM 41.0 °F 34.3 °F 39.0 °F 93% 30.22 in 4.0 mi NE 11.5 mph - 0.02 in Rain Light Rain
4:53 PM 41.0 °F 34.7 °F 39.0 °F 93% 30.23 in 7.0 mi NNE 10.4 mph - 0.02 in Rain Light Rain
5:53 PM 39.9 °F 32.5 °F 37.9 °F 93% 30.24 in 9.0 mi NNE 12.7 mph - 0.00 in   Overcast
6:18 PM 39.9 °F 35.8 °F 39.0 °F 97% 30.23 in 2.5 mi NE 5.8 mph - 0.00 in Rain Light Rain
6:25 PM 39.9 °F 35.1 °F 39.0 °F 97% 30.23 in 3.0 mi NNE 6.9 mph - 0.01 in Rain Light Rain
6:53 PM 39.9 °F 33.4 °F 37.9 °F 93% 30.25 in 6.0 mi NE 10.4 mph - 0.01 in Rain Light Rain
7:53 PM 39.9 °F 33.9 °F 37.9 °F 93% 30.26 in 6.0 mi NE 9.2 mph - 0.01 in Rain Light Rain
8:53 PM 39.9 °F 34.5 °F 39.0 °F 97% 30.26 in 5.0 mi NE 8.1 mph - 0.00 in Rain Light Rain
9:12 PM 39.9 °F 35.8 °F 39.0 °F 97% 30.24 in 7.0 mi NE 5.8 mph - 0.00 in   Overcast
9:40 PM 39.9 °F 35.1 °F 39.0 °F 97% 30.24 in 9.0 mi NE 6.9 mph - 0.00 in   Overcast
9:53 PM 39.9 °F 34.5 °F 39.0 °F 97% 30.25 in 9.0 mi NE 8.1 mph - 0.00 in Rain Light Rain
10:53 PM 39.9 °F 33.9 °F 39.0 °F 97% 30.26 in 6.0 mi NNE 9.2 mph - 0.00 in Rain Light Rain
11:53 PM 39.9 °F 34.5 °F 39.0 °F 97% 30.26 in 5.0 mi NNE 8.1 mph - 0.01 in Rain Light Rain